Time,TemperatureF,DewpointF,PressureIn,WindDirection,WindDirectionDegrees,WindSpeedMPH,WindSpeedGustMPH,Humidity,HourlyPrecipIn,Conditions,Clouds,dailyrainin,SoftwareType,DateUTC
2013-04-18 00:05:00,75.7,72.6,29.89,SE,135,6.7,-999.0,90,-99.99,,,0.00,Acu-Link.com,2013-04-18 05:05:00,
2013-04-18 00:21:00,75.7,72.6,29.89,SSE,157,6.7,-999.0,90,-99.99,,,0.00,Acu-Link.com,2013-04-18 05:21:00,
2013-04-18 00:36:00,75.4,72.6,29.89,South,180,5.1,-999.0,91,-99.99,,,0.00,Acu-Link.com,2013-04-18 05:36:00,
2013-04-18 00:51:00,75.0,72.2,29.89,South,180,7.8,-999.0,91,-99.99,,,0.00,Acu-Link.com,2013-04-18 05:51:00,
2013-04-18 01:06:00,74.8,71.7,29.88,SSE,157,8.3,-999.0,90,-99.99,,,0.00,Acu-Link.com,2013-04-18 06:06:00,
2013-04-18 01:22:00,74.8,72.0,29.88,SSE,157,6.3,-999.0,91,-99.99,,,0.00,Acu-Link.com,2013-04-18 06:22:00,
2013-04-18 01:37:00,74.8,71.7,29.88,SSE,157,6.3,-999.0,90,-99.99,,,0.00,Acu-Link.com,2013-04-18 06:37:00,
2013-04-18 01:52:00,74.8,71.7,29.88,SE,135,11.9,-999.0,90,-99.99,,,0.00,Acu-Link.com,2013-04-18 06:52:00,
2013-04-18 02:07:00,74.7,71.5,29.87,SSE,157,8.3,-999.0,90,-99.99,,,0.00,Acu-Link.com,2013-04-18 07:07:00,
2013-04-18 02:22:00,74.7,71.5,29.88,ESE,112,5.8,-999.0,90,-99.99,,,0.00,Acu-Link.com,2013-04-18 07:22:00,
2013-04-18 02:38:00,74.5,71.3,29.87,SSE,157,7.4,-999.0,90,-99.99,,,0.00,Acu-Link.com,2013-04-18 07:38:00,
2013-04-18 02:53:00,74.7,71.5,29.86,South,180,9.4,-999.0,90,-99.99,,,0.00,Acu-Link.com,2013-04-18 07:53:00,
2013-04-18 03:39:00,74.1,71.3,29.84,SE,135,10.3,-999.0,91,-99.99,,,0.00,Acu-Link.com,2013-04-18 08:39:00,
2013-04-18 03:54:00,74.1,71.3,29.83,SSE,157,6.7,-999.0,91,-99.99,,,0.00,Acu-Link.com,2013-04-18 08:54:00,
2013-04-18 04:09:00,74.5,71.0,29.83,SE,135,6.3,-999.0,89,-99.99,,,0.00,Acu-Link.com,2013-04-18 09:09:00,
2013-04-18 04:24:00,74.3,70.8,29.82,SSE,157,9.8,-999.0,89,-99.99,,,0.00,Acu-Link.com,2013-04-18 09:24:00,
2013-04-18 04:40:00,74.3,71.2,29.81,SSE,157,9.4,-999.0,90,-99.99,,,0.00,Acu-Link.com,2013-04-18 09:40:00,
2013-04-18 04:55:00,74.3,71.2,29.80,SSE,157,10.3,-999.0,90,-99.99,,,0.00,Acu-Link.com,2013-04-18 09:55:00,
2013-04-18 05:10:00,74.3,71.2,29.80,SE,135,9.4,-999.0,90,-99.99,,,0.00,Acu-Link.com,2013-04-18 10:10:00,
2013-04-18 05:25:00,74.3,71.2,29.79,SE,135,11.0,-999.0,90,-99.99,,,0.00,Acu-Link.com,2013-04-18 10:25:00,
2013-04-18 05:41:00,74.3,70.8,29.80,South,180,15.0,-999.0,89,-99.99,,,0.00,Acu-Link.com,2013-04-18 10:41:00,
2013-04-18 05:56:00,74.3,70.8,29.80,South,180,7.8,-999.0,89,-99.99,,,0.00,Acu-Link.com,2013-04-18 10:56:00,
2013-04-18 06:11:00,74.3,70.8,29.80,SSE,157,15.4,-999.0,89,-99.99,,,0.00,Acu-Link.com,2013-04-18 11:11:00,
2013-04-18 06:27:00,74.1,70.7,29.80,South,180,11.9,-999.0,89,-99.99,,,0.00,Acu-Link.com,2013-04-18 11:27:00,
2013-04-18 06:42:00,74.1,70.3,29.81,South,180,7.8,-999.0,88,-99.99,,,0.00,Acu-Link.com,2013-04-18 11:42:00,
2013-04-18 06:57:00,74.1,70.7,29.81,South,180,6.7,-999.0,89,-99.99,,,0.00,Acu-Link.com,2013-04-18 11:57:00,
2013-04-18 07:12:00,74.3,70.2,29.81,SSE,157,9.8,-999.0,87,-99.99,,,0.00,Acu-Link.com,2013-04-18 12:12:00,
2013-04-18 07:27:00,74.3,70.5,29.82,South,180,13.4,-999.0,88,-99.99,,,0.00,Acu-Link.com,2013-04-18 12:27:00,
2013-04-18 07:42:00,74.3,70.5,29.83,South,180,11.4,-999.0,88,-99.99,,,0.00,Acu-Link.com,2013-04-18 12:42:00,
2013-04-18 07:58:00,74.3,71.2,29.83,SSE,157,9.4,-999.0,90,-99.99,,,0.00,Acu-Link.com,2013-04-18 12:58:00,
2013-04-18 08:13:00,74.3,71.2,29.83,ESE,112,8.3,-999.0,90,-99.99,,,0.00,Acu-Link.com,2013-04-18 13:13:00,
2013-04-18 08:28:00,74.5,71.3,29.84,SE,135,8.3,-999.0,90,-99.99,,,0.00,Acu-Link.com,2013-04-18 13:28:00,
2013-04-18 08:43:00,74.7,71.5,29.84,South,180,8.3,-999.0,90,-99.99,,,0.00,Acu-Link.com,2013-04-18 13:43:00,
2013-04-18 08:59:00,75.2,71.7,29.84,SSW,202,7.4,-999.0,89,-99.99,,,0.00,Acu-Link.com,2013-04-18 13:59:00,
2013-04-18 09:14:00,75.9,72.1,29.83,SE,135,5.8,-999.0,88,-99.99,,,0.00,Acu-Link.com,2013-04-18 14:14:00,
2013-04-18 09:29:00,76.6,71.8,29.83,SE,135,12.5,-999.0,85,-99.99,,,0.00,Acu-Link.com,2013-04-18 14:29:00,
2013-04-18 09:45:00,77.7,71.4,29.83,SE,135,10.3,-999.0,81,-99.99,,,0.00,Acu-Link.com,2013-04-18 14:45:00,
2013-04-18 10:00:00,77.7,71.4,29.83,SW,225,11.0,-999.0,81,-99.99,,,0.00,Acu-Link.com,2013-04-18 15:00:00,
2013-04-18 10:15:00,77.7,72.1,29.83,SE,135,11.0,-999.0,83,-99.99,,,0.00,Acu-Link.com,2013-04-18 15:15:00,
2013-04-18 10:30:00,78.6,72.7,29.82,ESE,112,10.3,-999.0,82,-99.99,,,0.00,Acu-Link.com,2013-04-18 15:30:00,
2013-04-18 10:45:00,79.0,72.6,29.82,ESE,112,14.5,-999.0,81,-99.99,,,0.00,Acu-Link.com,2013-04-18 15:45:00,
2013-04-18 11:01:00,80.2,73.1,29.82,South,180,11.0,-999.0,79,-99.99,,,0.00,Acu-Link.com,2013-04-18 16:01:00,
2013-04-18 11:16:00,80.6,72.7,29.81,SSE,157,14.1,-999.0,77,-99.99,,,0.00,Acu-Link.com,2013-04-18 16:16:00,
2013-04-18 11:31:00,81.3,72.6,29.81,South,180,13.0,-999.0,75,-99.99,,,0.00,Acu-Link.com,2013-04-18 16:31:00,
2013-04-18 11:47:00,82.2,72.7,29.80,SSW,202,17.7,-999.0,73,-99.99,,,0.00,Acu-Link.com,2013-04-18 16:47:00,
2013-04-18 12:02:00,81.7,72.6,29.79,ESE,112,17.0,-999.0,74,-99.99,,,0.00,Acu-Link.com,2013-04-18 17:02:00,
2013-04-18 12:17:00,82.9,73.4,29.79,SSE,157,13.4,-999.0,73,-99.99,,,0.00,Acu-Link.com,2013-04-18 17:17:00,
2013-04-18 12:32:00,81.7,72.6,29.80,South,180,19.7,-999.0,74,-99.99,,,0.00,Acu-Link.com,2013-04-18 17:32:00,
2013-04-18 12:47:00,81.7,72.6,29.79,SSE,157,11.9,-999.0,74,-99.99,,,0.00,Acu-Link.com,2013-04-18 17:47:00,
2013-04-18 13:02:00,81.3,72.6,29.79,SSE,157,21.3,-999.0,75,-99.99,,,0.00,Acu-Link.com,2013-04-18 18:02:00,
2013-04-18 13:18:00,81.5,73.2,29.80,SSE,157,9.8,-999.0,76,-99.99,,,0.00,Acu-Link.com,2013-04-18 18:18:00,
2013-04-18 13:33:00,81.7,73.7,29.80,SSE,157,14.1,-999.0,77,-99.99,,,0.00,Acu-Link.com,2013-04-18 18:33:00,
2013-04-18 13:48:00,81.9,73.5,29.79,ESE,112,13.4,-999.0,76,-99.99,,,0.00,Acu-Link.com,2013-04-18 18:48:00,
2013-04-18 14:04:00,81.1,73.2,29.78,SSE,157,11.9,-999.0,77,-99.99,,,0.00,Acu-Link.com,2013-04-18 19:04:00,
2013-04-18 14:19:00,80.6,73.5,29.79,South,180,9.4,-999.0,79,-99.99,,,0.00,Acu-Link.com,2013-04-18 19:19:00,
2013-04-18 14:34:00,80.1,72.9,29.79,South,180,13.4,-999.0,79,-99.99,,,0.00,Acu-Link.com,2013-04-18 19:34:00,
2013-04-18 14:49:00,80.1,72.9,29.78,SSE,157,13.0,-999.0,79,-99.99,,,0.00,Acu-Link.com,2013-04-18 19:49:00,
2013-04-18 15:05:00,79.5,72.8,29.78,SSE,157,10.3,-999.0,80,-99.99,,,0.00,Acu-Link.com,2013-04-18 20:05:00,
2013-04-18 15:20:00,79.0,73.0,29.78,South,180,10.3,-999.0,82,-99.99,,,0.00,Acu-Link.com,2013-04-18 20:20:00,
2013-04-18 15:35:00,79.2,72.8,29.78,SW,225,7.8,-999.0,81,-99.99,,,0.00,Acu-Link.com,2013-04-18 20:35:00,
2013-04-18 15:50:00,78.8,72.8,29.76,ESE,112,11.4,-999.0,82,-99.99,,,0.00,Acu-Link.com,2013-04-18 20:50:00,
2013-04-18 16:06:00,79.0,73.0,29.76,SSE,157,16.1,-999.0,82,-99.99,,,0.00,Acu-Link.com,2013-04-18 21:06:00,
2013-04-18 16:21:00,78.4,73.2,29.76,South,180,11.9,-999.0,84,-99.99,,,0.00,Acu-Link.com,2013-04-18 21:21:00,
2013-04-18 16:36:00,77.5,73.4,29.76,SSW,202,11.0,-999.0,87,-99.99,,,0.00,Acu-Link.com,2013-04-18 21:36:00,
2013-04-18 16:52:00,77.2,73.0,29.76,South,180,15.0,-999.0,87,-99.99,,,0.00,Acu-Link.com,2013-04-18 21:52:00,
2013-04-18 17:07:00,76.8,72.6,29.75,SSE,157,7.8,-999.0,87,-99.99,,,0.00,Acu-Link.com,2013-04-18 22:07:00,
2013-04-18 17:22:00,76.6,72.8,29.75,South,180,13.0,-999.0,88,-99.99,,,0.00,Acu-Link.com,2013-04-18 22:22:00,
2013-04-18 17:37:00,76.5,72.6,29.74,SSE,157,13.4,-999.0,88,-99.99,,,0.00,Acu-Link.com,2013-04-18 22:37:00,
2013-04-18 17:53:00,76.3,72.5,29.75,SSE,157,8.3,-999.0,88,-99.99,,,0.00,Acu-Link.com,2013-04-18 22:53:00,
2013-04-18 18:08:00,76.1,72.6,29.76,SSW,202,8.9,-999.0,89,-99.99,,,0.00,Acu-Link.com,2013-04-18 23:08:00,
2013-04-18 18:23:00,66.0,64.2,29.79,WNW,292,15.4,-999.0,94,-99.99,,,0.00,Acu-Link.com,2013-04-18 23:23:00,
2013-04-18 18:38:00,59.9,59.3,29.82,NNW,337,11.4,-999.0,98,-99.99,,,0.06,Acu-Link.com,2013-04-18 23:38:00,
2013-04-18 18:53:00,59.4,59.1,29.82,North,0,7.8,-999.0,99,-99.99,,,0.11,Acu-Link.com,2013-04-18 23:53:00,
2013-04-18 19:09:00,59.5,59.3,29.83,NNW,337,14.1,-999.0,99,-99.99,,,0.12,Acu-Link.com,2013-04-19 00:09:00,
2013-04-18 19:24:00,59.5,59.3,29.85,NW,315,9.4,-999.0,99,-99.99,,,0.12,Acu-Link.com,2013-04-19 00:24:00,
2013-04-18 19:39:00,58.5,56.7,29.87,NNW,337,13.4,-999.0,94,-99.99,,,0.13,Acu-Link.com,2013-04-19 00:39:00,
2013-04-18 19:54:00,57.6,57.0,29.88,North,0,15.4,-999.0,98,-99.99,,,0.14,Acu-Link.com,2013-04-19 00:54:00,
2013-04-18 20:09:00,56.8,56.0,29.88,WNW,292,12.5,-999.0,97,-99.99,,,0.15,Acu-Link.com,2013-04-19 01:09:00,
2013-04-18 20:24:00,56.7,56.1,29.88,NW,315,7.4,-999.0,98,-99.99,,,0.15,Acu-Link.com,2013-04-19 01:24:00,
2013-04-18 20:40:00,55.4,55.1,29.90,NW,315,11.0,-999.0,99,-99.99,,,0.15,Acu-Link.com,2013-04-19 01:40:00,
2013-04-18 20:55:00,55.2,54.9,29.92,NW,315,8.9,-999.0,99,-99.99,,,0.54,Acu-Link.com,2013-04-19 01:55:00,
2013-04-18 21:10:00,54.7,54.4,29.92,WNW,292,10.3,-999.0,99,-99.99,,,0.54,Acu-Link.com,2013-04-19 02:10:00,
2013-04-18 21:26:00,54.3,54.0,29.94,NNE,22,10.3,-999.0,99,-99.99,,,0.59,Acu-Link.com,2013-04-19 02:26:00,
2013-04-18 21:41:00,53.6,53.3,29.96,NW,315,9.4,-999.0,99,-99.99,,,0.60,Acu-Link.com,2013-04-19 02:41:00,
2013-04-18 21:56:00,53.2,53.0,29.97,NW,315,9.4,-999.0,99,-99.99,,,0.61,Acu-Link.com,2013-04-19 02:56:00,
2013-04-18 22:12:00,52.3,52.1,29.97,NNE,22,10.3,-999.0,99,-99.99,,,0.62,Acu-Link.com,2013-04-19 03:12:00,
2013-04-18 22:27:00,52.0,51.7,30.00,WNW,292,11.0,-999.0,99,-99.99,,,0.62,Acu-Link.com,2013-04-19 03:27:00,
2013-04-18 22:42:00,51.8,51.3,30.00,NW,315,14.5,-999.0,98,-99.99,,,0.62,Acu-Link.com,2013-04-19 03:42:00,
2013-04-18 22:57:00,51.6,50.5,30.00,WNW,292,8.9,-999.0,96,-99.99,,,0.62,Acu-Link.com,2013-04-19 03:57:00,
2013-04-18 23:12:00,51.4,50.3,30.01,NNW,337,8.9,-999.0,96,-99.99,,,0.62,Acu-Link.com,2013-04-19 04:12:00,
2013-04-18 23:27:00,51.4,50.3,30.03,West,270,5.1,-999.0,96,-99.99,,,0.62,Acu-Link.com,2013-04-19 04:27:00,
2013-04-18 23:43:00,51.3,49.9,30.02,North,0,6.7,-999.0,95,-99.99,,,0.62,Acu-Link.com,2013-04-19 04:43:00,
2013-04-18 23:58:00,51.3,49.6,30.02,NNW,337,12.5,-999.0,94,-99.99,,,0.62,Acu-Link.com,2013-04-19 04:58:00,